User: anonymous   Login
Location: B?jaj?g
(11.7167°N, 92.6667°E)
Time: 06:22:53
(UTC+00:00)
Language:

Okean 1 - Orbit

View from above orbital plane
View from above orbital plane
View from above satellite
View from above satellite

Ground track
Ground track

The orbit data is extracted from the following two-line orbital elements,

1 19274U 88056A   21134.45200867  .00000623  00000-0  39916-4 0  9996
2 19274  82.5053 202.5175 0013597 117.6090 242.6521 15.06705797768593
Epoch (UTC): 14 May 2021 10:50:53
Eccentricity: 0.0013597
inclination: 82.5053°
perigee height: 537 km
apogee height: 555 km
right ascension of ascending node: 202.5175°
argument of perigee: 117.6090°
revolutions per day: 15.06705797
mean anomaly at epoch: 242.6521°
orbit number at epoch: 76859

The dashed part of the orbit path shows where the satellite is in the earth's shadow,  

DLR